Current Version              Previous Version:    01  02  03  04  05  06  07  08  09  10  11  12  13  14  15  16  17  18  19  20  21  22  23  24  25  26  27  28  29  30  
   31  32  33  34  35  36  37  38  39  40  41  42  43  44  45  46  47  48  49  50  51  52  53  54  55  56  57  58  59  60  

[Printable]
558
ASUS44 KEWX 282210
RWRTX
SOUTH TEXAS REGIONAL WEATHER ROUNDUP
NATIONAL WEATHER SERVICE AUSTIN/SAN ANTONIO TX
500 PM CDT MON JUL 28 2014

NOTE: "FAIR" INDICATED FEW OR NO CLOUDS BELOW 12,000 FEET WITH NO
SIGNIFICANT WEATHER AND/OR OBSTRUCTIONS TO VISIBILITY.

* - THESE STATIONS ARE NOT NWS OR FAA STATIONS...AND ARE NOT SUBJECT
    TO NWS AND FAA QUALITY CONTROL.

TXZ171-172-183>190-282300-
TEXAS HILL COUNTRY AND EDWARDS PLATEAU

CITY           SKY/WX    TMP DP  RH WIND       PRES   REMARKS
JUNCTION       SUNNY     98  58  26 E7        30.07F HX  97
*LLANO         SUNNY    100  59  25 SE7       30.08F HX 100
BURNET         SUNNY     96  60  30 E8        30.10F HX  96
*HORSESHOE BAY MOSUNNY   99  55  22 E7        30.07F HX  97
*KERRVILLE     MOSUNNY   96  63  32 S10       30.10F HX  97
*FREDERICKSBRG SUNNY     97  54  23 SE9       30.10F HX  95
*ROCKSPRINGS   SUNNY     93  61  33 SE8       30.14F HX  93
*BOERNE STAGE  SUNNY     91  59  33 E3        30.10F HX  90
*CASTROVILLE   SUNNY     99  60  27 CALM      30.05F HX  99
HONDO          SUNNY     97  66  36 VRB6      30.07F HX 100
*UVALDE        SUNNY     96  64  35 SE7       30.05F HX  98
DEL RIO        SUNNY     99  62  29 E12       30.02F HX 100
LAUGHLIN AFB   SUNNY     97  61  30 SE10G17   30.03F HX  98
CARRIZO SPRGS  SUNNY     99  63  30 E5        30.00F HX 100
$$

TXZ173-191>194-202-209-217>225-228-282300-
CENTRAL AND SOUTH CENTRAL TEXAS

CITY           SKY/WX    TMP DP  RH WIND       PRES   REMARKS
GEORGETOWN     MOSUNNY   97  64  34 SE6       30.04F HX  99
AUSTIN/BERGSTM MOSUNNY  100  63  29 NW5       30.03F HX 102
AUSTIN/MABRY   SUNNY     98  64  32 CALM      30.05F HX 100
*AUSTIN/EXEC   MOSUNNY   97  66  36 CALM      30.05F HX 100
*LAGO VISTA    MOSUNNY   98  58  26 E7        30.09F HX  97
SAN MARCOS     MOSUNNY   97  63  32 S8        30.05F HX  98
NEW BRAUNFELS  MOSUNNY   99  63  30 SW8       30.03F HX 101
RANDOLPH AFB   MOSUNNY   98  65  34 S7        30.05F HX 100
PT SAN ANTONIO MOSUNNY   96  64  34 NE3       30.04F HX  98
SAN ANTONIO    MOSUNNY   96  63  33 VRB7      30.06F HX  97
STINSON FIELD  SUNNY     98  64  32 S8        30.03F HX 100
*PLEASANTON    SUNNY    101  61  27 E7        30.03F HX 101
*LA GRANGE     SUNNY     99  69  37 CALM      30.01F HX 105
*GIDDINGS      SUNNY     97  63  32 CALM      30.07F HX  98
*GONZALES      SUNNY    100  66  33 CALM      30.02F HX 104
$$

TXZ163>164-176>182-195>201-210>213-226-227-235-282300-
SOUTHEAST TEXAS

CITY           SKY/WX    TMP DP  RH WIND       PRES   REMARKS
COLLEGE STN    SUNNY     96  66  37 SW5       30.04F HX  99
*BRYAN         SUNNY    N/A N/A N/A CALM      30.04F
*CALDWELL      SUNNY     97  61  30 CALM      30.07F HX  97
*CROCKETT        N/A     95  77  55 SW6       30.07S HX 109
*BRENHAM       SUNNY     96  61  30 CALM      30.04F HX  96
HUNTSVILLE     MOSUNNY   93  71  48 VRB3      30.05F HX 100
CONROE         MOSUNNY   95  68  41 SE3       30.03F HX  99
HOUSTON BUSH   PTSUNNY   97  65  34 VRB3      30.02F HX  99
HOUSTON HOBBY  PTSUNNY   96  68  39 SW5       30.02F HX 101
*HOUSTON SW AP MOSUNNY   94  67  39 NE5       30.04F HX  98
PEARLAND       MOSUNNY   95  69  42 VRB3      30.04F HX 100
HOUSTON HOOKS  MOSUNNY   95  68  41 W5        30.03F HX  99
ELLINGTON FLD  PTSUNNY   95  66  38 SE5       30.04  HX  98
SUGAR LAND     MOSUNNY   97  67  37 SW3       30.03F HX 101
*HOUSTON EXEC  MOSUNNY   95  70  43 CALM      30.04F HX 101
*CLEVELAND MUN MOSUNNY   96  74  49 SW3       30.03F HX 106
*WHARTON       PTSUNNY   96  69  41 SE9       30.03F HX 100
$$

TXZ214>216-236>238-282300-
THE UPPER TEXAS COAST

CITY           SKY/WX    TMP DP  RH WIND       PRES   REMARKS
*ORANGE        SUNNY     93  69  46 W6        30.03F HX  98
PORT ARTHUR    SUNNY     94  74  52 W6        30.02F HX 104
GALVESTON      SUNNY     90  77  65 S14       30.05F HX 103
ANGLETON       PTSUNNY   87  76  69 S10       30.04F HX  97
*BAY CITY      SUNNY     95  75  51 S10G16    30.03F HX 106
PALACIOS       SUNNY     90  76  63 S14       30.05F HX 101
$$

TXZ229>234-239>247-282300-
TEXAS COASTAL BEND AND RIO GRANDE PLAINS

CITY           SKY/WX    TMP DP  RH WIND       PRES   REMARKS
VICTORIA       SUNNY     99  73  43 SE15      30.02F HX 109
*BEEVILLE      SUNNY     99  69  37 SE13      30.02F HX 105
ROCKPORT       SUNNY     90  77  65 SE15      30.04F HX 103
*PORT ARANSAS  SUNNY     87  78  73 SE12      30.04F HX 100
*PORT LAVACA   MOSUNNY   93  73  52 S10G17    30.03F HX 102
*INGLESIDE     SUNNY     93  75  55 SE15      30.04F HX 103
CORPUS CHRISTI MOSUNNY   95  72  47 SE15      30.03F HX 103
CORPUS NAS     MOSUNNY   90  77  65 SE18      30.04F HX 103
*ROBSTOWN      NOT AVBL
ALICE          MOSUNNY   99  73  43 SE15G24   30.00S HX 109
KINGSVILLE NAS MOSUNNY   97  73  45 SE17      30.02S HX 107
COTULLA        MOSUNNY  101  59  24 MISG      30.00F HX 101
*FAITH RANCH   SUNNY    100  59  25 E7        30.03F HX 100
LAREDO         MOSUNNY  104  62  25 E7        30.00F HX 106
$$

TXZ248>255-282300-
DEEP SOUTH TEXAS

CITY           SKY/WX    TMP DP  RH WIND       PRES   REMARKS
BROWNSVILLE    SUNNY     93  74  53 SE18G25   30.03F HX 103
PORT ISABEL    SUNNY     92  74  55 SE21G26   30.02F HX 101
*SOUTH PADRE   SUNNY     90  79  70 SE10      30.04F HX 105
HARLINGEN      MOSUNNY   97  70  41 SE18G25   30.00F HX 103
*HEBBRONVILLE  MOSUNNY  101  60  25 E9G16     30.00F HX 101
MCALLEN        MOSUNNY  100  68  35 SE18G25   29.99F HX 105
*WESLACO       MOSUNNY   98  64  33 SE12G22   29.99F HX 100
FALFURRIAS     SUNNY     94  67  40 E14G22    29.98F HX  97
EDINBURG       MOSUNNY  100  62  28 SE17G24   29.99F HX 101
*ZAPATA        NOT AVBL
$$

TXZ213>215-236>238-242>244-246-247-251-254-255-282300-
CMAN STATIONS

STATION/POSITION TIME  TEMP    WIND        PRES    WAVE
                       AIR SEA DIR/SP/G            HT/PER
                 (UTC) (F)     (DEG/KT/KT) (MB)    (FT/S)
SABINE PASS      2200   89 89  240/  8/ 15 1017.2
SEA RIM ST PARK  2200   87     220/ 14/ 17 1017.4
NORTH JETTY/GLS  2200   86 92  230/ 12/ 14   N/A
EAGLE POINT      2200   88 91  180/ 11/ 12 1017.3
MORGANS POINT    2200   91 92  160/  9/ 12 1016.9
MISSION/ARANSAS  2100   85     140/ 13     1019.0
PORT O`CONNOR    2200          150/  9/ 10   N/A
PORT ARANSAS     2200   83 86  130/  8/  9 1018.5
MALAQUITE BEACH  2200   82 81  120/ 10/ 11 1017.0
BAFFIN BAY       2200   85 91  130/ 18/ 22 1016.9
PORT ISABEL      2200   85 84  120/ 18/ 23 1017.5
$$

GMZ080-GMZ150>470-282300-
OFFSHORE BUOY REPORTS

STATION/POSITION TIME  TEMP    WIND        PRES    WAVE
                       AIR SEA DIR/SP/G            HT/PER
                 (UTC) (F)     (DEG/KT/KT) (MB)    (FT/S)
90 E PT ARANSAS  2200   84 86  170/  2/  2 1018.8    2/ 5
35 NE PT MANSFLD 2200   84 85  160/ 12/ 14 1017.2    2/ 5
200 E PT ISABEL  2200   85 90  140/  2/  4 1018.2    1/ 5
$$